This is the latest recevied weather packets stored in our database for station/object KD9IXX-13. If no packets are shown the sender has not sent any weather packets the latest 10 day(s).
| Time | Temp. | Humidity | Pressure | Rain* | Wind** | Luminosity | Snow |
|---|---|---|---|---|---|---|---|
| 1777726202 | 5.56° C | 73% | 1021.6 hPa | 0 mm | - | 337 W/m² | - |
| 1777725902 | 4.44° C | 76% | 1021.3 hPa | 0 mm | - | 111 W/m² | - |
| 1777725602 | 3.89° C | 87% | 1021.5 hPa | 0 mm | - | 93 W/m² | - |
| 1777725302 | 3.33° C | 97% | 1021.5 hPa | 0 mm | - | 81 W/m² | - |
| 1777725002 | 2.78° C | 99% | 1021.3 hPa | 0 mm | - | 74 W/m² | - |
| 1777724703 | 2.78° C | 99% | 1021.5 hPa | 0 mm | - | 69 W/m² | - |
| 1777724402 | 2.22° C | 99% | 1021.4 hPa | 0 mm | - | 65 W/m² | - |
| 1777724102 | 1.67° C | 99% | 1021.4 hPa | 0 mm | - | 70 W/m² | - |
| 1777723802 | 1.67° C | 99% | 1021.6 hPa | 0 mm | - | 111 W/m² | - |
| 1777723502 | 1.11° C | 99% | 1021.2 hPa | 0 mm | - | 54 W/m² | - |
| 1777723202 | 0.56° C | 99% | 1021.5 hPa | 0 mm | - | 49 W/m² | - |
| 1777722902 | 0° C | 99% | 1021.2 hPa | 0 mm | - | 32 W/m² | - |
| 1777722602 | -1.11° C | 99% | 1021.2 hPa | 0 mm | - | 30 W/m² | - |
| 1777722302 | -1.67° C | 99% | 1021.1 hPa | 0 mm | - | 27 W/m² | - |
| 1777722002 | -2.22° C | 99% | 1021 hPa | 0 mm | - | 24 W/m² | - |
| 1777721702 | -2.22° C | 99% | 1021.1 hPa | 0 mm | - | 22 W/m² | - |
| 1777721402 | -2.22° C | 99% | 1020.9 hPa | 0 mm | - | 19 W/m² | - |
| 1777721102 | -2.22° C | 99% | 1020.9 hPa | 0 mm | - | 17 W/m² | - |
| 1777720802 | -2.22° C | 99% | 1020.8 hPa | 0 mm | - | 16 W/m² | - |
| 1777720503 | -2.22° C | 99% | 1020.8 hPa | 0 mm | - | 13 W/m² | - |
| 1777720202 | -2.22° C | 99% | 1020.8 hPa | 0 mm | - | 11 W/m² | - |
| 1777719902 | -2.22° C | 99% | 1020.9 hPa | 0 mm | - | 8 W/m² | - |
| 1777719602 | -1.67° C | 99% | 1020.8 hPa | 0 mm | - | 6 W/m² | - |
| 1777719302 | -2.22° C | 99% | 1020.7 hPa | 0 mm | - | 4 W/m² | - |
| 1777719002 | -2.22° C | 99% | 1020.7 hPa | 0 mm | - | 3 W/m² | - |
* Rain latest hour (hover to see other rain measurements)
** Current wind speed in m/s (hover to see current wind gust speed)